Dewpoint
24 24 25 25 25 24 24 23 20 16 17 18 18 19 21 23 25 25 24 29 33 33 34 35 35 35 36 36 36 37 38 38 39 41 41 41 42 43
25 22 23 24 23 24 24 24 23 20 18 20 19 20 21 22 25 25 25 30 31 32 33 33 34 35 35 35 35 36 37 38 39 40 41 42 42 42
22 21 22 22 23 23 23 23 22 22 20 19 20 21 21 23 23 24 26 24 25 31 33 33 34 34 34 34 34 35 36 37 38 39 40 40 41 41
21 21 21 21 22 21 22 21 21 21 21 19 20 22 22 23 24 24 24 25 25 29 32 33 32 33 33 33 34 34 35 36 35 36 37 37 38 38
24 22 22 22 21 22 21 21 21 20 22 21 21 23 23 24 24 25 25 25 25 28 29 30 31 32 33 33 33 33 33 34 34 33 34 35 36 37
24 23 22 21 21 20 20 21 21 21 22 22 23 23 23 25 25 24 22 22 22 22 26 28 31 31 32 32 32 32 32 32 33 33 33 34 34 36
22 22 22 25 26 25 24 24 23 23 23 23 23 23 22 25 23 23 22 22 23 24 23 24 25 25 25 28 28 29 30 32 33 33 34 34 35 35
20 20 20 22 25 27 28 28 27 25 21 20 18 26 24 23 23 23 23 22 22 24 23 22 24 22 22 23 28 30 31 32 32 32 32 34 34 35
20 20 20 21 26 24 27 29 28 30 29 27 25 23 23 23 24 24 25 24 24 23 23 21 22 20 21 21 28 29 30 31 32 32 31 32 33 34
21 21 21 22 25 26 25 26 26 26 26 25 24 24 25 25 28 26 25 23 23 22 22 19 20 19 20 21 28 29 30 31 31 31 31 31 31 31
21 22 24 24 27 28 27 26 25 24 25 26 27 29 29 28 26 23 22 22 19 18 20 19 19 20 21 21 21 28 28 29 29 29 30 31 31 31
23 23 26 25 28 29 25 23 21 19 20 22 20 19 20 20 25 22 20 20 20 18 20 19 20 21 18 21 21 22 20 26 28 29 30 30 30 26
23 23 23 28 28 27 26 20 20 22 22 17 17 18 19 20 21 22 23 22 20 19 21 23 21 21 21 19 20 21 21 21 21 22 27 28 29 29
23 23 24 28 26 24 22 24 25 24 17 17 18 19 20 21 21 21 22 22 23 23 23 24 21 19 18 17 16 19 21 21 22 22 23 26 29 31
24 25 25 23 22 20 22 23 23 17 18 18 19 20 20 21 21 20 21 21 21 22 24 23 23 21 21 18 17 18 20 21 22 22 23 24 25 25
24 18 19 19 20 19 18 18 17 17 19 20 19 19 20 19 19 19 18 19 19 18 21 22 21 21 19 20 20 18 19 19 21 23 24 25 26 27
20 15 14 15 15 15 16 17 17 17 19 19 19 18 18 18 18 18 18 18 17 17 18 19 21 21 21 20 19 19 20 20 22 23 24 24 25 26
16 14 15 15 16 16 16 17 17 18 17 18 18 17 17 17 17 19 20 18 17 17 18 19 19 19 19 20 24 20 21 21 22 23 25 25 25 27
15 15 16 16 16 17 17 17 16 17 17 16 16 16 17 18 19 17 17 18 18 18 19 20 20 20 18 16 20 24 24 24 24 25 26 25 25 26
16 16 16 16 17 17 17 16 16 16 16 16 17 19 18 17 16 17 18 18 19 21 22 23 23 23 21 20 22 24 27 27 26 25 25 26 27 29
16 16 17 17 17 17 17 17 16 16 18 18 15 17 17 18 18 19 19 23 24 22 21 22 25 29 28 28 24 23 25 28 30 29 28 27 25 26
16 16 17 18 18 17 17 16 16 15 15 15 16 17 18 20 20 20 21 21 21 22 23 27 28 28 27 25 23 24 25 27 29 31 32 33 29 25
16 16 17 18 18 17 17 16 16 16 16 16 17 18 20 21 22 22 23 23 24 26 26 25 25 26 26 26 26 25 26 27 27 28 29 31 33 33
Lifted_Index
9 9 10 12 14 14 15 14 13 10 10 13 16 18 20 21 22 22 22 22 22 21 21 20 19 19 18 18 17 17 17 16 16 16 16 15 15 14
10 10 11 13 14 15 15 16 15 13 13 15 17 19 20 21 21 22 22 22 22 22 21 20 20 19 19 18 18 17 17 17 16 15 15 14 13 13
10 11 12 13 14 15 16 17 17 17 16 17 19 20 20 21 21 21 22 22 22 22 21 20 20 19 19 19 18 18 17 16 15 14 13 12 11 11
12 12 13 14 15 16 17 17 18 19 18 18 19 20 20 21 21 21 21 22 22 22 21 21 20 20 19 19 18 17 15 14 14 13 12 12 11 11
14 14 14 14 15 17 18 18 19 19 19 18 19 20 21 21 21 21 21 22 22 21 21 21 21 20 19 18 16 15 14 14 13 13 13 12 12 11
16 16 16 16 17 18 19 19 20 20 19 19 19 19 20 20 21 21 21 21 21 21 20 20 20 19 17 16 15 14 14 14 14 13 13 12 12 11
17 17 18 19 19 19 20 20 20 20 19 19 19 19 19 20 21 21 21 20 20 20 19 18 17 16 14 14 14 14 14 14 13 13 12 12 11 11
18 18 19 20 20 21 21 21 21 20 20 19 19 19 20 20 21 21 20 19 18 18 16 15 14 13 13 13 13 13 13 13 13 13 12 12 11 11
19 19 20 20 21 21 21 21 21 20 20 20 20 20 21 21 21 21 20 18 17 15 14 13 13 13 13 13 12 12 12 12 12 12 12 11 11 10
20 20 20 20 21 21 21 21 20 20 20 21 21 21 21 21 21 20 18 16 15 14 13 12 12 12 12 12 12 11 11 11 11 12 11 11 10 10
20 21 21 21 21 21 21 20 20 20 21 21 21 21 20 20 19 17 15 14 13 12 12 12 12 12 12 12 12 11 10 10 10 11 11 11 10 10
20 21 21 21 21 21 21 20 20 21 21 21 20 19 18 17 16 15 14 13 12 11 11 11 11 10 10 11 11 10 9 9 9 10 10 10 10 10
19 20 21 21 21 21 21 21 21 21 21 20 18 17 15 14 14 14 13 13 12 11 10 10 9 9 9 9 9 9 8 8 9 9 9 10 10 10
20 20 21 21 21 22 22 22 21 21 19 18 16 14 14 13 13 13 13 13 12 11 10 9 8 8 8 8 8 8 8 8 9 9 9 10 10 10
21 21 21 22 22 22 22 21 20 19 17 15 14 13 13 13 13 13 13 13 12 11 10 10 9 9 9 9 9 8 8 8 9 9 9 10 10 10
21 21 21 22 22 22 21 20 18 17 15 14 13 13 13 13 13 13 13 13 12 11 11 11 10 10 10 10 10 9 9 9 9 9 10 10 10 9
21 21 21 21 21 20 19 17 16 15 14 14 13 13 13 13 13 13 13 13 12 11 11 11 11 11 11 11 11 10 9 9 9 10 10 9 9 9
21 21 21 21 20 18 16 15 14 14 13 13 13 13 13 13 13 13 13 12 12 11 11 11 11 11 10 11 11 11 10 10 10 10 10 9 9 9
22 21 21 20 18 16 14 13 13 13 13 13 13 14 14 13 13 13 12 12 12 12 12 12 11 11 10 10 11 11 11 11 10 10 10 10 9 9
22 21 20 19 16 14 13 13 13 13 13 13 13 14 14 14 13 13 12 12 12 12 11 12 12 11 11 10 10 10 11 11 11 11 10 10 10 10
21 20 19 16 15 14 13 13 12 12 13 13 13 14 14 14 13 13 13 12 12 12 12 12 12 12 11 11 10 9 10 10 11 11 11 11 11 10
20 19 17 15 14 13 13 13 12 12 12 13 13 13 14 14 14 13 13 13 13 12 12 12 12 12 11 10 9 9 9 10 10 11 12 12 11 11
19 17 16 15 14 13 13 12 12 12 12 13 13 13 14 14 14 14 13 13 13 13 12 12 12 11 11 10 9 9 9 9 10 10 11 12 12 11